Location: STAR School
(35.3054°N, 111.2976°W)
Time: 02:11:46
(UTC-07:00)

Envisat - Visible Passes

Search period start: 20 April 2019 00:00
Search period end: 30 April 2019 00:00
Orbit: 764 x 766 km, 98.2° (Epoch: 19 April)

Date Brightness Start Highest point End Pass type
(mag) Time Alt. Az. Time Alt. Az. Time Alt. Az.
20 Apr 5.9 20:23:45 10° WSW 20:26:16 14° W 20:28:47 10° WNW visible
21 Apr 4.8 19:44:43 10° SSW 19:49:15 33° W 19:53:48 10° NNW visible
23 Apr 5.7 20:11:33 10° SW 20:14:57 18° W 20:18:21 10° NW visible
24 Apr 4.4 19:33:11 10° S 19:37:59 42° W 19:42:47 10° NNW visible
26 Apr 5.4 19:59:39 10° SSW 20:03:38 23° W 20:07:38 10° NW visible
28 Apr 5.9 20:27:22 10° WSW 20:29:23 12° W 20:31:23 10° WNW visible
29 Apr 5.0 19:47:56 10° SSW 19:52:20 30° W 19:56:45 10° NW visible
